TIME,DELAY(SENSOR),PRES,OXYGEN,RAWTEMP,T(OPTODE),TCPHASE,FLUOR,BETA(BETA700),BETA(BETA412),BETA(BETA440),CDOM,C(CSC),ED(ED412.40),ED(ED444.00),ED(ED489.70),ED(ED554.30),LU(LU411.80),LU(LU443.40),LU(LU489.60),LU(LU554.10),COMP,TILTX,TILTY,CHECK
1362973565,5808,888.1300048828125000,44.7444305419921900,660.4005737304688000,4.6147818565368650,54.2991790771484400,52,99,88,80,80,14821,2147756790,2147423350,2148012050,2147874176,2147640969,2147059236,2148257316,2147202605,2768,4,13,20523
1362977161,5809,947.7199707031250000,46.8362808227539060,668.3468017578125000,4.3527932167053220,54.0918502807617200,52,100,84,80,80,14819,2147759122,2147428233,2148009261,2147873856,2147639222,2147056594,2148258870,2147195858,2630,4,14,286
1362980761,5810,955.8400268554688000,47.1298904418945300,669.3256225585938000,4.3204751014709470,54.0658798217773440,52,102,86,79,80,14818,2147760073,2147425572,2148008521,2147872932,2147638939,2147061056,2148257600,2147196013,225,4,13,5249
1362984361,5810,989.5900268554688000,48.1253013610839840,671.0615844726562000,4.2631230354309080,53.9442100524902340,52,102,87,79,80,14818,2147762532,2147420873,2148009170,2147875766,2147637302,2147057353,2148259995,2147192950,529,4,13,7871
1362987961,5809,992.0599975585938000,48.3315200805664060,671.9586791992188000,4.2334709167480470,53.9280700683593750,52,99,87,78,80,14822,2147759524,2147423753,2148011931,2147873728,2147645147,2147057462,2148259227,2147199158,315,4,13,5834
1362991561,5807,1000.2999877929688000,48.3364486694335940,671.2130737304688000,4.2581181526184080,53.9144287109375000,52,100,86,79,80,14821,2147758464,2147423222,2148009344,2147875648,2147637522,2147058779,2148263332,2147196461,205,4,13,1850
1362995161,5808,999.2500000000000000,48.6646003723144500,672.2808227539062000,4.2228240966796875,53.8825988769531250,52,99,84,79,81,14822,2147755456,2147423570,2148013476,2147873974,2147642422,2147055506,2148258989,2147194276,83,4,13,16974
1362998761,5812,1003.5499877929688000,48.6853981018066400,672.0855102539062000,4.2292799949646000,53.8791694641113300,53,99,85,79,80,14820,2147761060,2147424384,2148012608,2147875062,2147642386,2147053760,2148257353,2147196635,389,4,13,20780
1363002361,5810,1004.2999877929688000,48.3927192687988300,671.8095092773438000,4.2384028434753420,53.9141197204589840,53,97,88,79,80,14819,2147756214,2147422811,2148013028,2147873636,2147638235,2147057837,2148262701,2147195565,3343,4,13,9576
1363005961,5808,997.8099975585938000,48.0807113647460940,672.1386718750000000,4.2275199890136720,53.9613800048828100,53,101,89,79,80,14816,2147760457,2147425124,2148013056,2147872722,2147637385,2147061577,2148257792,2147198610,2672,4,13,41465
1363009561,5805,1002.7899780273438000,48.4510002136230500,672.0051269531250000,4.2319388389587400,53.9126586914062500,53,97,89,80,80,14818,2147759661,2147423232,2148009362,2147873636,2147640292,2147059337,2148261010,2147196891,3399,4,13,56197
1363013161,5807,1008.5499877929688000,48.3909606933593750,671.9971923828125000,4.2322010993957520,53.9160690307617200,54,101,89,79,80,14818,2147758418,2147424027,2148008795,2147876534,2147639277,2147058953,2148259648,2147198317,3360,4,13,31206
1363016761,5806,1006.2299804687500000,48.4420700073242200,672.0076904296875000,4.2318530082702640,53.9095802307128900,52,99,88,78,80,14818,2147759707,2147422692,2148013906,2147877092,2147641609,2147057554,2148261156,2147197376,3176,4,13,8910
1363020361,5809,1000.9899902343750000,48.3277015686035160,673.5996704101562000,4.1792111396789550,53.9462585449218750,52,133,84,78,80,14820,2147760393,2147423076,2148012187,2147873984,2147642304,2147057316,2148256539,2147200173,349,4,13,52353
1363023961,5812,1000.4000244140625000,48.9251594543457000,672.9979858398438000,4.1991100311279300,53.8582305908203100,52,98,87,79,81,14813,2147757275,2147422454,2148013403,2147874148,2147638838,2147059035,2148260690,2147196781,3471,4,13,18935
1363027561,5808,1003.5399780273438000,49.0001792907714840,672.9061889648438000,4.2021470069885250,53.8486404418945300,52,98,106,78,80,14815,2147757586,2147421915,2148012342,2147873801,2147641472,2147061266,2148263049,2147200521,231,4,13,28520
1363031161,5811,1006.3200073242188000,49.0039100646972660,673.1384277343750000,4.1944680213928220,53.8454017639160160,53,99,86,79,80,14814,2147759131,2147425161,2148008859,2147873636,2147639396,2147061010,2148267090,2147198208,464,4,13,30618
1363034761,5810,999.8400268554688000,48.3686294555664060,672.8692016601562000,4.2033691406250000,53.9339904785156250,52,99,88,79,80,14815,2147759780,2147421568,2148010176,2147873408,2147640566,2147058505,2148262692,2147201398,316,4,13,3573
1363038361,5808,1003.7600097656250000,47.8622398376464840,673.1517944335938000,4.1940250396728520,54.0107192993164060,52,98,86,79,80,14811,2147756388,2147422848,2148011849,2147871972,2147642669,2147054710,2148264905,2147199734,3521,4,13,6273
1363041961,5807,1004.1799926757812000,48.6234207153320300,672.9481201171875000,4.2007598876953125,53.8970298767089840,53,99,84,79,80,14818,2147754587,2147423094,2148013193,2147873508,2147640018,2147054848,2148265819,2147201005,3421,4,13,42184
1363045561,5810,1002.4099731445312000,48.3874282836914060,673.6594848632812000,4.1772332191467285,53.9439315795898440,52,98,86,79,81,14813,2147756562,2147421275,2148012306,2147870116,2147638445,2147059867,2148259117,2147198966,3432,4,13,58143
1363049161,5808,1002.6500244140625000,48.7572517395019500,674.4285278320312000,4.1517958641052250,53.8956604003906250,52,97,87,78,80,14815,2147759158,2147426934,2148011337,2147875657,2147639113,2147063405,2148262226,2147204278,2971,4,13,10999
1363052761,5808,1000.3800048828125000,48.5968208312988300,674.9224243164062000,4.1354541778564450,53.9246292114257800,53,98,89,79,81,14812,2147759643,2147425984,2148012324,2147870720,2147641901,2147051712,2148259940,2147199798,3591,4,13,12066
1363056361,5806,1004.2500000000000000,48.4423789978027340,674.0076293945312000,4.1657199859619140,53.9383697509765600,52,98,88,83,80,14815,2147754916,2147424539,2148011547,2147871588,2147641728,2147055396,2148261769,2147199012,3594,4,14,31416
1363059961,5808,1000.7100219726562000,48.4050598144531250,674.2147216796875000,4.1588687896728520,53.9417800903320300,52,101,84,77,81,14811,2147761261,2147425435,2148009636,2147873280,2147642496,2147055469,2148261906,2147195044,3578,4,13,41472
1363063561,5808,1005.9099731445312000,49.1331214904785160,674.5841064453125000,4.1466479301452640,53.8510894775390600,53,99,83,78,79,14815,2147757824,2147426541,2148008694,2147871158,2147642249,2147063524,2148258706,2147196461,3166,4,13,11016
1363067161,5810,1002.6699829101562000,48.4585914611816400,674.2125854492188000,4.1589369773864750,53.9357986450195300,52,101,86,78,80,14811,2147760768,2147423826,2148009645,2147873106,2147642294,2147054902,2148264356,2147198939,3565,4,13,52331
1363070761,5811,1000.9099731445312000,48.4765892028808600,674.9667968750000000,4.1339859962463380,53.9444618225097660,53,99,92,80,80,14812,2147757824,2147427465,2148013284,2147873380,2147641353,2147054464,2148265362,2147197778,5,4,13,409
1363074361,5809,997.2199707031250000,48.1717910766601560,675.1356811523438000,4.1283969879150390,53.9863395690918000,52,100,86,80,81,14810,2147757878,2147423323,2148010258,2147873024,2147641188,2147059072,2148266587,2147198409,3534,4,13,47258
1363077961,5806,1002.3099975585938000,49.3485603332519500,675.3787231445312000,4.1203560829162600,53.8239784240722660,52,98,88,78,79,14809,2147761728,2147424493,2148008219,2147871305,2147641161,2147056603,2148261019,2147195529,434,4,13,25036
1363081561,5809,1023.0800170898438000,48.6484909057617200,672.5759887695312000,4.2130641937255860,53.8908882141113300,52,102,87,80,80,14813,2147760018,2147425353,2148010267,2147873490,2147641371,2147057773,2148263012,2147198400,3312,4,13,34519
1363085161,5809,1020.2800292968750000,47.3648185729980500,671.2943115234375000,4.2554321289062500,54.0520591735839840,53,99,89,79,81,14810,2147758043,2147426066,2148010697,2147875264,2147642267,2147055689,2148260096,2147201206,217,4,13,37675
1363088761,5807,1010.8400268554688000,47.5271186828613300,672.9852905273438000,4.1995320320129395,54.0503616333007800,53,98,86,80,80,14810,2147757632,2147428242,2148010742,2147872896,2147640320,2147053348,2148257645,2147196891,3569,4,14,42304
1363092361,5808,1011.8300170898438000,48.4510002136230500,673.2202148437500000,4.1917648315429690,53.9293403625488300,52,98,84,79,80,14808,2147759378,2147426477,2148012306,2147873865,2147637961,2147050048,2148262710,2147197979,429,4,13,44813
1363095961,5807,1001.2600097656250000,47.9969406127929700,673.2211303710938000,4.1917319297790530,53.9881286621093750,53,104,87,79,80,14806,2147756233,2147424786,2148005494,2147870902,2147638985,2147056850,2148261339,2147200045,2776,4,13,33341
1363099561,5807,1002.4899902343750000,47.9881210327148440,675.0560913085938000,4.1310310363769530,54.0108985900878900,52,98,87,80,79,14808,2147759506,2147425389,2148008548,2147872329,2147641042,2147063579,2148262692,2147195373,3428,4,13,45894
1363103161,5808,1002.8099975585938000,48.2541694641113300,674.3883056640625000,4.1531257629394530,53.9687995910644500,52,100,89,78,80,14808,2147757485,2147425718,2148009243,2147873728,2147642880,2147054811,2148260754,2147195858,3525,4,13,1021
1363106761,5810,1012.4000244140625000,47.7898216247558600,673.1563720703125000,4.1938719749450680,54.0211410522460940,52,98,85,78,81,14804,2147756644,2147423469,2148011794,2147873828,2147642816,2147055716,2148264228,2147195803,345,4,13,20347
1363110361,5809,1014.4600219726562000,47.4380798339843750,673.0734252929688000,4.1966171264648440,54.0659484863281250,52,97,88,79,81,14806,2147756982,2147426221,2148009581,2147874349,2147638774,2147051053,2148259273,2147198829,3578,4,14,42978
1363113961,5807,1010.9400024414062000,47.8421096801757800,673.0075073242188000,4.1987972259521480,54.0077400207519500,52,98,86,78,80,14804,2147757366,2147425892,2148010578,2147875492,2147642596,2147056429,2148265097,2147198637,321,4,13,437
1363117561,5810,1012.2299804687500000,47.5951690673828100,672.7963867187500000,4.2057762145996090,54.0446510314941400,53,98,86,79,79,14804,2147757549,2147425234,2148012690,2147874349,2147636379,2147060370,2148266413,2147195099,3427,4,13,46976
1363119056,5808,1019.2500000000000000,47.2360992431640600,672.8137817382812000,4.2052001953125000,54.0930480957031250,52,99,89,78,79,14810,2147757238,2147424585,2148011465,2147875858,2147638125,2147054272,2148261869,2147197284,168,4,13,13152
